Weather History for FVHA - January, 2013

Change the Weather History Date:

Thursday, January 17, 2013

  Actual Average Record
Temperature  
Mean Temperature 72 °F -  
Max Temperature 80 °F 78 °F 89 °F (2003)
Min Temperature 64 °F 60 °F 37 °F (2003)
Cooling Degree Days 7    
Growing Degree Days 22 (Base 50)    
Moisture  
Dew Point 64 °F    
Average Humidity 78    
Maximum Humidity 100    
Minimum Humidity 47    
Precipitation  
Precipitation 0.00 in 0.22 in - ()
Sea Level Pressure  
Sea Level Pressure 30.18 in    
Wind  
Wind Speed 6 mph ()    
Max Wind Speed 12 mph    
Max Gust Speed -    
Visibility 8.5 miles    
Events      
Averages and records for this station are not official NWS values.
T = Trace of Precipitation, MM = Missing Value Source: Averaged Metar Reports

Daily Weather History Graph

Daily Weather History Graph

Search for Another Location

Airport or City:

Trip Planner

Search our weather history database for the weather conditions in past years. The results will help you decide how hot, cold, wet, or windy it might be!

Date:

Astronomy

Jan. 17, 2013 Rise Set
Actual Time 5:33 AM CAT 6:37 PM CAT
Civil Twilight 5:10 AM CAT 7:00 PM CAT
Nautical Twilight 4:42 AM CAT 7:28 PM CAT
Astronomical Twilight 4:13 AM CAT 7:57 PM CAT
Moon 10:44 AM CAT (1/17) 10:44 PM CAT (1/17)
Length of Visible Light 13h 50m
Length of Day
13h 03m
Waxing Crescent, 34% of the Moon is Illuminated
Jan 17
Waxing Crescent
Jan 19
First Quarter
Jan 27
Full
Feb 3
Last Quarter
Feb 10
New

Hourly Weather History & Observations

Time (CAT) Temp. Heat Index Dew Point Humidity Pressure Visibility Wind Dir Wind Speed Gust Speed Precip Events Conditions
1:00 AM 64.4 °F - 64.4 °F 100% 30.21 in 6.2 mi ESE 3.5 mph - N/A   Mostly Cloudy
2:00 AM 65 °F - 64 °F 96%  in 19 mi Calm Calm - -   Partly Cloudy
2:00 AM 64.4 °F - 64.4 °F 100% 30.18 in 6.2 mi Calm Calm - N/A   Mostly Cloudy
5:00 AM 64.4 °F - 64.4 °F 100% 30.21 in 6.2 mi East 3.5 mph - N/A   Mostly Cloudy
6:00 AM 64.4 °F - 64.4 °F 100% 30.21 in 6.2 mi ENE 3.5 mph - N/A   Mostly Cloudy
7:00 AM 66.2 °F - 64.4 °F 94% 30.21 in - ENE 9.2 mph - N/A   Mostly Cloudy
8:00 AM 68 °F - 65 °F 89%  in 16 mi East 9.2 mph - -   Mostly Cloudy
8:00 AM 68.0 °F - 66.2 °F 94% 30.24 in 6.2 mi East 9.2 mph - N/A   Mostly Cloudy
9:00 AM 71.6 °F - 64.4 °F 78% 30.24 in 6.2 mi East 10.4 mph - N/A   Mostly Cloudy
10:00 AM 75.2 °F - 64.4 °F 69% 30.21 in 6.2 mi ENE 11.5 mph - N/A   Mostly Cloudy
11:00 AM 75.2 °F - 62.6 °F 65% 30.21 in 6.2 mi NE 11.5 mph - N/A   Mostly Cloudy
12:00 PM 75.2 °F - 64.4 °F 69% 30.18 in 6.2 mi NE 11.5 mph - N/A   Mostly Cloudy
1:00 PM 78.8 °F - 64.4 °F 61% 30.18 in 6.2 mi NE 11.5 mph - N/A   Mostly Cloudy
2:00 PM 78 °F - 62 °F 47%  in 19 mi ENE 10.4 mph - -   Partly Cloudy
2:00 PM 80.6 °F 81.8 °F 62.6 °F 54% 30.15 in 6.2 mi ENE 10.4 mph - N/A   Mostly Cloudy
3:00 PM 78.8 °F - 62.6 °F 57% 30.12 in 6.2 mi ENE 10.4 mph - N/A   Mostly Cloudy
4:00 PM 78.8 °F - 62.6 °F 57% 30.12 in 6.2 mi East 11.5 mph - N/A   Mostly Cloudy
5:00 PM 77.0 °F - 60.8 °F 57% 30.12 in 6.2 mi ENE 10.4 mph - N/A   Mostly Cloudy
6:00 PM 73.4 °F - 60.8 °F 65% 30.12 in 6.2 mi East 6.9 mph - N/A   Mostly Cloudy
7:00 PM 68.0 °F - 62.6 °F 83% 30.15 in 6.2 mi ESE 6.9 mph - N/A   Mostly Cloudy
8:00 PM 69 °F - 64 °F 78%  in 19 mi ESE 6.9 mph - -   Scattered Clouds
8:00 PM 69.8 °F - 64.4 °F 83% 30.15 in 6.2 mi ESE 6.9 mph - N/A   Mostly Cloudy
9:00 PM 69.8 °F - 62.6 °F 78% 30.18 in - NE 9.2 mph - N/A   Clear
10:00 PM 68.0 °F - 62.6 °F 83% 30.18 in - NE 6.9 mph - N/A   Clear
11:00 PM 68.0 °F - 62.6 °F 83% 30.18 in - NNE 5.8 mph - N/A   Clear